Luverne, MN

8:35 AM CDT on April 29, 2017 (GMT -0500)
Luverne

Weather History for KLYV - March, 2013

Change the Weather History Date:

Friday, March 8, 2013

  Actual Average (KPQN) Record (KPQN)
Temperature  
Mean Temperature 34 °F -  
Max Temperature 42 °F 29 °F 57 °F (2016)
Min Temperature 26 °F 14 °F 0 °F (2003)
Degree Days  
Heating Degree Days 31    
Moisture  
Dew Point 29 °F    
Average Humidity 83    
Maximum Humidity 93    
Minimum Humidity 66    
Precipitation  
Precipitation 0.04 in - - ()
Sea Level Pressure  
Sea Level Pressure 30.11 in    
Wind  
Wind Speed 7 mph (SE)    
Max Wind Speed 15 mph    
Max Gust Speed 18 mph    
Visibility 5 miles    
Events Rain    
Averages and records for this station are not official NWS values.
T = Trace of Precipitation, MM = Missing Value Source: NWS Daily Summary

Daily Weather History Graph

Daily Weather History Graph

Search for Another Location

Airport or City:

Trip Planner

Search our weather history database for the weather conditions in past years. The results will help you decide how hot, cold, wet, or windy it might be!

Date:

Astronomy

Mar. 08, 2013 Rise Set
Actual Time 6:48 AM CST 6:22 PM CST
Civil Twilight 6:20 AM CST 6:51 PM CST
Nautical Twilight 5:47 AM CST 7:24 PM CST
Astronomical Twilight 5:13 AM CST 7:58 PM CST
Moon 4:39 AM CST (3/8) 3:14 PM CST (3/8)
Length of Visible Light 12h 31m
Length of Day
11h 33m
Waning Crescent, 11% of the Moon is Illuminated
Mar 8
Waning Crescent
Mar 11
New
Mar 19
First Quarter
Mar 27
Full
Apr 2
Last Quarter

Hourly Weather History & Observations

Time (CST) Temp. Windchill Dew Point Humidity Pressure Visibility Wind Dir Wind Speed Gust Speed Precip Events Conditions
12:16 AM 30.2 °F 22.6 °F 26.6 °F 86% 30.20 in 5.0 mi SSE 8.1 mph - N/A   Clear
12:37 AM 30.2 °F 21.9 °F 26.6 °F 86% 30.19 in 5.0 mi SSE 9.2 mph - N/A   Clear
12:57 AM 30.2 °F 23.4 °F 26.6 °F 86% 30.20 in 5.0 mi SSE 6.9 mph - N/A   Clear
1:17 AM 30.2 °F 23.4 °F 26.6 °F 86% 30.20 in 5.0 mi SSE 6.9 mph - N/A   Clear
1:36 AM 28.4 °F 22.2 °F 24.8 °F 86% 30.20 in 5.0 mi SSE 5.8 mph - N/A   Clear
1:57 AM 28.4 °F 22.2 °F 24.8 °F 86% 30.20 in 5.0 mi South 5.8 mph - N/A   Clear
2:17 AM 28.4 °F 22.2 °F 24.8 °F 86% 30.20 in 5.0 mi South 5.8 mph - N/A   Clear
2:36 AM 28.4 °F 23.3 °F 24.8 °F 86% 30.20 in 5.0 mi SSE 4.6 mph - N/A   Clear
2:57 AM 28.4 °F 24.6 °F 24.8 °F 86% 30.19 in 5.0 mi SSE 3.5 mph - N/A   Clear
3:17 AM 28.4 °F 24.6 °F 24.8 °F 86% 30.19 in 5.0 mi SSE 3.5 mph - N/A   Clear
3:36 AM 28.4 °F 24.6 °F 24.8 °F 86% 30.18 in 5.0 mi SSE 3.5 mph - N/A   Clear
3:57 AM 28.4 °F 24.6 °F 24.8 °F 86% 30.18 in 5.0 mi SE 3.5 mph - N/A   Clear
4:17 AM 26.6 °F 21.2 °F 23.0 °F 86% 30.19 in 5.0 mi SE 4.6 mph - N/A   Clear
4:36 AM 26.6 °F 21.2 °F 23.0 °F 86% 30.18 in 5.0 mi SE 4.6 mph - N/A   Clear
4:57 AM 26.6 °F 22.6 °F 23.0 °F 86% 30.18 in 5.0 mi SE 3.5 mph - N/A   Clear
5:17 AM 26.6 °F 22.6 °F 23.0 °F 86% 30.19 in 5.0 mi SE 3.5 mph - N/A   Clear
5:37 AM 26.6 °F 22.6 °F 23.0 °F 86% 30.20 in 5.0 mi ESE 3.5 mph - N/A   Clear
5:57 AM 26.6 °F 22.6 °F 23.0 °F 86% 30.19 in 5.0 mi ESE 3.5 mph - N/A   Clear
6:17 AM 26.6 °F 22.6 °F 23.0 °F 86% 30.19 in 5.0 mi ESE 3.5 mph - N/A   Clear
6:37 AM 26.6 °F - 23.0 °F 86% 30.19 in 5.0 mi Calm Calm - N/A   Clear
6:57 AM 26.6 °F - 23.0 °F 86% 30.18 in 5.0 mi Calm Calm - N/A   Clear
7:17 AM 26.6 °F 22.6 °F 23.0 °F 86% 30.19 in 4.0 mi SSE 3.5 mph - N/A   Clear
7:37 AM 26.6 °F - 23.0 °F 86% 30.18 in 4.0 mi Calm Calm - N/A   Clear
7:57 AM 28.4 °F 24.6 °F 23.0 °F 80% 30.18 in 4.0 mi SE 3.5 mph - N/A   Clear
8:17 AM 28.4 °F 24.6 °F 23.0 °F 80% 30.18 in 5.0 mi ESE 3.5 mph - N/A   Haze
8:57 AM 30.2 °F 24.3 °F 26.6 °F 86% 30.19 in 5.0 mi SE 5.8 mph - N/A   Haze
9:16 AM 32.0 °F 26.4 °F 26.6 °F 80% 30.19 in 5.0 mi SE 5.8 mph - N/A   Haze
9:37 AM 32.0 °F 26.4 °F 26.6 °F 80% 30.19 in 5.0 mi SSE 5.8 mph - N/A   Haze
9:57 AM 32.0 °F 25.6 °F 28.4 °F 87% 30.19 in 5.0 mi South 6.9 mph - N/A   Haze
10:16 AM 32.0 °F 26.4 °F 28.4 °F 87% 30.19 in 5.0 mi SSE 5.8 mph - N/A   Haze
10:37 AM 33.8 °F 28.6 °F 28.4 °F 81% 30.19 in 5.0 mi SSE 5.8 mph - N/A   Haze
10:57 AM 35.6 °F 29.2 °F 30.2 °F 81% 30.17 in 5.0 mi ESE 8.1 mph - N/A   Haze
11:16 AM 35.6 °F 28.6 °F 30.2 °F 81% 30.15 in 5.0 mi ESE 9.2 mph - N/A   Haze
11:37 AM 37.4 °F 31.4 °F 30.2 °F 75% 30.14 in 5.0 mi East 8.1 mph - N/A   Haze
11:56 AM 37.4 °F 31.4 °F 32.0 °F 81% 30.14 in 7.0 mi ESE 8.1 mph - N/A   Clear
12:17 PM 39.2 °F 33.0 °F 32.0 °F 75% 30.14 in 5.0 mi SE 9.2 mph - N/A   Haze
12:37 PM 41.0 °F 34.7 °F 32.0 °F 70% 30.12 in 7.0 mi ESE 10.4 mph - N/A   Clear
12:56 PM 41.0 °F 35.2 °F 32.0 °F 70% 30.12 in 7.0 mi ESE 9.2 mph - N/A   Clear
1:17 PM 41.0 °F 35.8 °F 33.8 °F 76% 30.11 in 5.0 mi SE 8.1 mph - N/A   Haze
1:37 PM 42.8 °F 37.5 °F 32.0 °F 66% 30.10 in 7.0 mi SE 9.2 mph - N/A   Clear
1:56 PM 42.8 °F 38.0 °F 33.8 °F 70% 30.09 in 7.0 mi ESE 8.1 mph - N/A   Clear
2:17 PM 42.8 °F 36.6 °F 33.8 °F 70% 30.08 in 7.0 mi ESE 11.5 mph - N/A   Clear
2:37 PM 42.8 °F 36.6 °F 33.8 °F 70% 30.06 in 5.0 mi East 11.5 mph - N/A   Haze
2:56 PM 42.8 °F 36.6 °F 33.8 °F 70% 30.07 in 5.0 mi ESE 11.5 mph 16.1 mph N/A   Haze
3:17 PM 42.8 °F 36.6 °F 33.8 °F 70% 30.06 in 5.0 mi ESE 11.5 mph - N/A   Haze
3:36 PM 42.8 °F 36.6 °F 33.8 °F 70% 30.06 in 5.0 mi ESE 11.5 mph - N/A   Haze
3:57 PM 42.8 °F 36.6 °F 33.8 °F 70% 30.05 in 5.0 mi ESE 11.5 mph - N/A   Haze
4:17 PM 41.0 °F 33.1 °F 33.8 °F 76% 30.05 in 5.0 mi ESE 15.0 mph 18.4 mph N/A   Haze
4:36 PM 41.0 °F 33.5 °F 33.8 °F 76% 30.03 in 5.0 mi ESE 13.8 mph - N/A   Haze
4:57 PM 39.2 °F 32.0 °F 33.8 °F 81% 30.03 in 5.0 mi ESE 11.5 mph - N/A   Haze
5:17 PM 39.2 °F 32.0 °F 33.8 °F 81% 30.03 in 4.0 mi ESE 11.5 mph - N/A   Haze
5:37 PM 37.4 °F 30.3 °F 32.0 °F 81% 30.02 in 4.0 mi East 10.4 mph - N/A   Haze
5:57 PM 37.4 °F 29.8 °F 32.0 °F 81% 30.02 in 4.0 mi ESE 11.5 mph - N/A   Haze
6:17 PM 35.6 °F 28.0 °F 32.0 °F 87% 30.02 in 5.0 mi ESE 10.4 mph - N/A   Haze
6:36 PM 35.6 °F 28.6 °F 32.0 °F 87% 30.02 in 5.0 mi East 9.2 mph - N/A   Overcast
6:57 PM 35.6 °F 28.0 °F 32.0 °F 87% 30.02 in 5.0 mi East 10.4 mph - N/A   Mostly Cloudy
7:17 PM 35.6 °F 28.6 °F 32.0 °F 87% 30.02 in 4.0 mi East 9.2 mph - N/A   Overcast
7:36 PM 33.8 °F 26.4 °F 32.0 °F 93% 30.01 in 4.0 mi East 9.2 mph - N/A   Overcast
7:57 PM 33.8 °F 26.4 °F 32.0 °F 93% 30.01 in 4.0 mi East 9.2 mph - N/A   Overcast
8:17 PM 33.8 °F 26.4 °F 32.0 °F 93% 30.01 in 4.0 mi East 9.2 mph - N/A   Overcast
8:36 PM 33.8 °F 26.4 °F 32.0 °F 93% 30.00 in 4.0 mi East 9.2 mph - N/A   Overcast
8:57 PM 35.6 °F 27.5 °F 32.0 °F 87% 29.99 in 4.0 mi ESE 11.5 mph - N/A   Overcast
9:17 PM 33.8 °F 25.8 °F 32.0 °F 93% 29.99 in 3.0 mi ESE 10.4 mph 16.1 mph N/A Rain Rain
9:36 PM 33.8 °F 24.8 °F 32.0 °F 93% 29.98 in 3.0 mi ESE 12.7 mph - N/A Rain Light Rain
9:57 PM 33.8 °F 25.3 °F 32.0 °F 93% 29.98 in 3.0 mi ESE 11.5 mph - N/A Rain Rain
10:16 PM 33.8 °F 26.4 °F 32.0 °F 93% 29.99 in 2.5 mi SE 9.2 mph - 0.01 in Rain Rain
10:36 PM 33.8 °F 26.4 °F 32.0 °F 93% 29.98 in 1.8 mi SE 9.2 mph - 0.03 in Rain Rain
10:57 PM 35.6 °F 27.1 °F 32.0 °F 87% 29.97 in 3.0 mi ESE 12.7 mph - N/A Rain Rain
11:17 PM 33.8 °F 26.4 °F 32.0 °F 93% 29.96 in 3.0 mi ESE 9.2 mph - 0.01 in Rain Light Rain
11:36 PM 33.8 °F 25.8 °F 32.0 °F 93% 29.94 in 2.5 mi SE 10.4 mph - 0.01 in Rain Light Rain
11:57 PM 33.8 °F 25.8 °F 32.0 °F 93% 29.93 in 2.5 mi SE 10.4 mph - N/A Rain Light Rain